[[{"header":{"parameterUnit":"m.s-1","parameterCategory":1,"la1":30.2991,"la2":30.254,"lo1":-89.0895,"lo2":-89.0444,"dy":0.0017,"dx":0.0017,"nx":28,"ny":28,"refTime":"2024-06-12T03:00:00:Z","depth":0,"parameterNumber":2,"parameterNumberName":"U-component_of_WINDS"},"data":[0,0,0,0,0,0,0,0,0,0,0,0,0,0,0,0,0,0,0,0,0,0,0,0,0,0,0,0,0,0,0,0,0,0,0,0,0,0,0,0,0,0,0,0,0,0,0,0,0,0,0,0,0,0,0,0,0,0,1.8994,1.8994,0,1.8989,1.8989,1.8989,1.8964,1.8964,1.8963,1.8963,1.8955,1.8955,1.8956,0,0,0,0,0,0,0,0,0,0,0,0,0,1.8981,1.8981,1.8994,1.8994,1.8994,1.8989,1.8989,1.8989,1.8965,1.8964,1.8963,1.8963,1.8955,1.8955,1.8956,0,0,0,0,0,0,0,0,0,0,0,0,0,1.8982,1.8981,1.8994,1.8982,1.898,1.8989,1.8989,1.8989,1.8965,1.8964,1.8963,1.8962,1.8955,1.8955,1.8956,1.8975,0,0,1.8957,1.8957,0,0,0,0,0,0,0,0,1.8982,1.8982,1.8984,1.8983,1.8981,1.8976,1.8981,1.8984,1.8965,1.8971,1.8963,1.8962,1.8963,1.8962,1.8963,1.8975,1.8974,1.8957,1.8957,1.8958,1.8958,0,0,0,0,0,0,0,1.8982,1.8983,1.8992,1.8984,1.8982,1.8975,1.8974,1.8981,1.8971,1.897,1.8968,1.8968,1.8962,1.8963,1.8963,1.8974,1.8957,1.8957,1.8958,1.8958,1.8998,1.8999,0,0,0,0,0,0,1.8984,1.8983,1.8992,1.8992,1.898,1.8976,1.8975,1.8979,1.8971,1.8969,1.8969,1.8967,1.8962,1.8962,1.8962,1.8982,1.8958,1.8958,1.8958,1.8997,1.8998,1.8999,0,0,0,0,0,0,1.8984,1.8985,1.8992,1.8987,1.8987,1.8977,1.8981,1.8979,1.898,1.897,1.8968,1.8972,1.8962,1.8962,1.8971,1.8982,1.8958,1.8959,1.8996,1.8998,1.8999,1.9024,0,0,0,0,0,0,1.8984,1.8985,1.8994,1.8987,1.8988,1.9003,1.8982,1.898,1.8981,1.8979,1.8972,1.8971,1.8961,1.8971,1.8972,1.8982,1.8959,1.8995,1.8997,1.8998,1.9022,1.9026,1.9029,0,0,0,0,0,1.8983,1.9001,1.8994,1.8995,1.8998,1.9004,1.9004,1.8993,1.8982,1.8989,1.8983,1.8971,1.8981,1.8972,1.8973,1.8983,1.8995,1.8997,1.8998,1.9021,1.9025,1.9029,0,0,0,0,0,0,1.9009,1.9,1.8992,1.9009,1.9007,1.9,1.9009,1.8999,1.9,1.8997,1.8983,1.8982,1.8993,1.8989,1.898,1.9,1.8985,1.8988,1.9002,1.9006,1.901,1.901,1.8959,0,0,0,0,0,1.9016,1.9023,1.9014,1.903,1.9029,1.9019,1.9021,1.9013,1.901,1.9009,1.9004,1.9001,1.9003,1.9005,1.9006,1.9022,1.9019,1.9029,1.9033,1.9035,1.9037,1.9042,1.9046,1.9005,1.9005,1.9005,0,0,1.9032,1.9028,1.9033,1.9035,1.9033,1.9038,1.9019,1.9026,1.9029,1.901,1.9019,1.9014,1.901,1.9022,1.9027,1.9019,1.9048,1.9038,1.904,1.904,1.9044,1.9048,1.9052,1.9006,1.9006,1.9006,0,0,1.9063,1.9062,1.9073,1.9071,1.9068,1.906,1.9063,1.9057,1.9053,1.9061,1.9046,1.905,1.9055,1.9051,1.905,1.9078,1.9066,1.9078,1.9096,1.9101,1.9104,1.9107,1.9115,1.9118,1.908,1.908,1.908,0,1.9083,1.9091,1.908,1.9087,1.9087,1.9071,1.9081,1.9079,1.9077,1.9076,1.9068,1.9072,1.9068,1.9078,1.9084,1.9085,1.9086,1.9079,1.9105,1.9108,1.911,1.9117,1.912,1.9082,1.9082,1.9081,1.9081,0,1.9114,1.912,1.9129,1.9127,1.9128,1.9137,1.9126,1.9128,1.9119,1.9113,1.912,1.9114,1.9113,1.9115,1.9107,1.9123,1.9118,1.9108,1.9092,1.9116,1.9122,1.9124,1.9084,1.9083,1.9083,1.9083,0,0,1.9161,1.9151,1.9155,1.9152,1.9147,1.915,1.9157,1.9157,1.9158,1.9156,1.916,1.9164,1.9153,1.9152,1.9143,1.9148,1.9167,1.9136,1.9136,1.9141,1.9181,1.9188,1.9192,1.9159,1.916,1.916,1.9181,0,1.9189,1.9201,1.919,1.9204,1.9207,1.9191,1.9197,1.9193,1.9186,1.9188,1.918,1.9182,1.9169,1.9168,1.9172,1.9164,1.9175,1.9162,1.9161,1.9161,1.9161,1.9195,1.9203,1.9223,1.9184,1.9184,1.9184,0,1.9223,1.9222,1.9236,1.9227,1.9228,1.9234,1.9231,1.9233,1.9228,1.9222,1.922,1.9209,1.9213,1.9199,1.9204,1.9196,1.9195,1.919,1.9191,1.9189,1.9173,1.9192,1.9229,1.9231,1.9188,1.9188,1.9188,0,1.9253,1.9255,1.9263,1.9262,1.9253,1.9256,1.9253,1.9246,1.9246,1.9243,1.9242,1.924,1.9239,1.9237,1.9224,1.9216,1.923,1.9215,1.9224,1.9224,1.9226,1.9226,1.9261,1.9229,1.9229,1.9228,1.9228,0,1.9284,1.9292,1.9276,1.9281,1.9289,1.9277,1.9285,1.9279,1.9273,1.9275,1.9261,1.9263,1.9248,1.9248,1.9238,1.9242,1.9242,1.9236,1.9233,1.9237,1.9237,1.9235,1.9232,1.9229,1.9229,1.9229,1.9229,0,1.9318,1.9308,1.9315,1.9306,1.9303,1.931,1.93,1.9303,1.9296,1.9298,1.9298,1.9286,1.9284,1.9272,1.9269,1.9262,1.9269,1.9264,1.9271,1.9269,1.9277,1.9276,1.9311,1.9314,1.9281,1.9281,1.9281,0,1.9338,1.9344,1.9334,1.9335,1.9331,1.9333,1.9332,1.9319,1.9318,1.9312,1.9315,1.9313,1.931,1.9309,1.9298,1.9295,1.9289,1.9301,1.9288,1.9291,1.9287,1.9286,1.9285,1.9304,1.9304,1.9304,1.9305,0,1.9372,1.9367,1.9367,1.9364,1.9364,1.9361,1.9357,1.9358,1.9344,1.9344,1.9342,1.934,1.9336,1.9333,1.9328,1.9322,1.931,1.9309,1.931,1.9313,1.9316,1.9312,1.9276,1.9308,1.9308,1.9307,1.9307,1.9307,1.9399,1.9402,1.9396,1.9395,1.9391,1.9388,1.9389,1.9381,1.938,1.9376,1.9368,1.9368,1.936,1.9351,1.9346,1.9345,1.9338,1.9341,1.9341,1.9341,1.9342,1.9317,1.9344,1.9344,1.9344,1.9344,1.9343,0,1.9431,1.9425,1.9425,1.942,1.942,1.9409,1.9404,1.9404,1.9404,1.9398,1.9395,1.9393,1.9389,1.9379,1.9374,1.9374,1.9369,1.9373,1.9372,1.9371,1.935,1.9348,1.9378,1.9378,1.9378,1.9378,1.9378,1.9378,1.9447,1.9452,1.9446,1.9448,1.9442,1.9442,1.9439,1.9435,1.943,1.9428,1.9425,1.9419,1.941,1.9404,1.94,1.9397,1.9395,1.9401,1.9396,1.9376,1.9373,1.9369,1.9368,1.9401,1.9401,1.9417,1.9417,1.9417]},{"header":{"parameterUnit":"m.s-1","parameterCategory":1,"la1":30.2991,"la2":30.254,"lo1":-89.0895,"lo2":-89.0444,"dy":0.0017,"dx":0.0017,"nx":28,"ny":28,"refTime":"2024-06-12T03:00:00:Z","depth":0,"parameterNumber":3,"parameterNumberName":"V-component_of_WINDS"},"data":[0,0,0,0,0,0,0,0,0,0,0,0,0,0,0,0,0,0,0,0,0,0,0,0,0,0,0,0,0,0,0,0,0,0,0,0,0,0,0,0,0,0,0,0,0,0,0,0,0,0,0,0,0,0,0,0,0,0,1.8296,1.8296,0,1.8293,1.8293,1.8293,1.8267,1.8266,1.8265,1.8265,1.826,1.826,1.826,0,0,0,0,0,0,0,0,0,0,0,0,0,1.8276,1.8276,1.8296,1.8296,1.8296,1.8293,1.8293,1.8293,1.8267,1.8266,1.8265,1.8264,1.8259,1.826,1.8261,0,0,0,0,0,0,0,0,0,0,0,0,0,1.828,1.8277,1.8296,1.8283,1.8281,1.8293,1.8293,1.8293,1.8267,1.8266,1.8265,1.8264,1.8259,1.826,1.8261,1.8285,0,0,1.8263,1.8263,0,0,0,0,0,0,0,0,1.828,1.8281,1.8285,1.8284,1.8282,1.8279,1.8284,1.829,1.8267,1.8272,1.8265,1.8263,1.8267,1.8267,1.8268,1.8285,1.8284,1.8263,1.8263,1.8264,1.8264,0,0,0,0,0,0,0,1.828,1.8281,1.8295,1.8285,1.8283,1.8276,1.8275,1.8285,1.8275,1.8272,1.827,1.827,1.8266,1.8268,1.8268,1.8284,1.8263,1.8263,1.8264,1.8264,1.8317,1.8318,0,0,0,0,0,0,1.8282,1.8281,1.8295,1.8295,1.8279,1.8277,1.8276,1.8281,1.8275,1.8273,1.8271,1.8269,1.8267,1.8267,1.8268,1.8293,1.8264,1.8264,1.8265,1.8316,1.8317,1.8318,0,0,0,0,0,0,1.8281,1.8283,1.8295,1.8287,1.8288,1.8278,1.8284,1.8282,1.8283,1.8274,1.8272,1.8275,1.8266,1.8267,1.828,1.8293,1.8265,1.8265,1.8315,1.8316,1.8317,1.8346,0,0,0,0,0,0,1.8281,1.8283,1.8293,1.8288,1.8289,1.8309,1.8285,1.8282,1.8285,1.8282,1.8277,1.8275,1.8265,1.8279,1.8281,1.8293,1.8266,1.8313,1.8315,1.8317,1.8344,1.8348,1.8352,0,0,0,0,0,1.828,1.8302,1.8294,1.8296,1.8301,1.831,1.831,1.8299,1.8286,1.8295,1.8289,1.8276,1.8292,1.8281,1.8282,1.8295,1.8313,1.8315,1.8317,1.8342,1.8348,1.8352,0,0,0,0,0,0,1.8309,1.8301,1.8292,1.8313,1.8312,1.8305,1.8317,1.8305,1.8308,1.8305,1.829,1.8289,1.8304,1.8301,1.829,1.8317,1.8299,1.8302,1.8318,1.8323,1.8327,1.8327,1.8266,0,0,0,0,0,1.8318,1.8326,1.8318,1.8337,1.8337,1.8327,1.833,1.8322,1.832,1.832,1.8314,1.8313,1.8317,1.832,1.8324,1.8344,1.8341,1.8353,1.8357,1.8361,1.8363,1.837,1.8375,1.8325,1.8325,1.8325,0,0,1.8336,1.8332,1.8339,1.8343,1.8341,1.8349,1.8327,1.8337,1.8342,1.8321,1.8333,1.8329,1.8326,1.8342,1.8348,1.834,1.8376,1.8363,1.8366,1.8366,1.8373,1.8378,1.8382,1.8327,1.8326,1.8326,0,0,1.8372,1.8372,1.8386,1.8385,1.8383,1.8375,1.8379,1.8373,1.8369,1.8381,1.8365,1.837,1.8379,1.8376,1.8377,1.841,1.8397,1.8411,1.8432,1.844,1.8444,1.8447,1.8457,1.8461,1.8414,1.8414,1.8414,0,1.8395,1.8407,1.8395,1.8405,1.8406,1.8387,1.8401,1.84,1.8399,1.8399,1.839,1.8398,1.8395,1.8409,1.8417,1.8418,1.842,1.8412,1.8444,1.8448,1.845,1.8459,1.8463,1.8415,1.8415,1.8415,1.8415,0,1.8433,1.8441,1.8453,1.8452,1.8455,1.8467,1.8455,1.8459,1.8449,1.8443,1.8453,1.8449,1.845,1.8453,1.8444,1.8465,1.8459,1.8447,1.8429,1.8457,1.8465,1.8469,1.8418,1.8417,1.8417,1.8416,0,0,1.8488,1.8479,1.8484,1.8482,1.8477,1.8483,1.8493,1.8494,1.8496,1.8496,1.8502,1.8509,1.8497,1.8497,1.8488,1.8495,1.8518,1.8481,1.8481,1.8487,1.8538,1.8546,1.855,1.851,1.8511,1.8511,1.8537,0,1.8521,1.8538,1.8527,1.8545,1.8551,1.8532,1.8541,1.8538,1.8531,1.8535,1.8527,1.8531,1.8517,1.8516,1.8522,1.8514,1.8528,1.8512,1.8514,1.8514,1.8514,1.8555,1.8563,1.8589,1.8541,1.8541,1.8542,0,1.8563,1.8563,1.8582,1.8574,1.8576,1.8584,1.8582,1.8587,1.8582,1.8577,1.8576,1.8564,1.8571,1.8554,1.8563,1.8552,1.8552,1.8548,1.8549,1.8547,1.8529,1.8552,1.8597,1.86,1.8547,1.8547,1.8546,0,1.8598,1.8604,1.8615,1.8614,1.8606,1.8611,1.8608,1.8602,1.8603,1.8602,1.8602,1.8602,1.8601,1.8601,1.8588,1.8577,1.8597,1.858,1.8591,1.8591,1.8595,1.8595,1.8638,1.8598,1.8598,1.8598,1.8598,0,1.8635,1.8647,1.863,1.8637,1.8648,1.8635,1.8646,1.8641,1.8636,1.864,1.8625,1.8628,1.8613,1.8614,1.8605,1.8612,1.8612,1.8607,1.8604,1.8607,1.8607,1.8606,1.8603,1.8599,1.8599,1.8599,1.8599,0,1.8676,1.8666,1.8676,1.8667,1.8665,1.8674,1.8665,1.867,1.8662,1.8667,1.8668,1.8655,1.8656,1.8644,1.8643,1.8636,1.8647,1.8642,1.8648,1.8646,1.8657,1.8656,1.87,1.8704,1.8663,1.8663,1.8664,0,1.87,1.8708,1.8699,1.8701,1.8698,1.8702,1.8702,1.8688,1.8689,1.8683,1.8688,1.8688,1.8687,1.869,1.868,1.8678,1.8671,1.8687,1.8671,1.8674,1.8669,1.8668,1.8668,1.869,1.869,1.8691,1.8691,0,1.8742,1.8736,1.8738,1.8737,1.8737,1.8736,1.8734,1.8736,1.872,1.8722,1.8723,1.8722,1.872,1.8719,1.8716,1.8711,1.8698,1.8696,1.8698,1.8701,1.8704,1.8701,1.8656,1.8695,1.8695,1.8694,1.8694,1.8694,1.8774,1.8779,1.8773,1.8775,1.8771,1.8769,1.8772,1.8765,1.8765,1.8763,1.8754,1.8756,1.8749,1.8743,1.8739,1.8739,1.8731,1.8735,1.8736,1.8736,1.8738,1.8705,1.8739,1.8739,1.8738,1.8738,1.8738,0,1.8813,1.8808,1.881,1.8806,1.8807,1.8795,1.8791,1.8792,1.8794,1.8789,1.8788,1.8788,1.8787,1.8776,1.8774,1.8776,1.8769,1.8775,1.8774,1.8772,1.8746,1.8743,1.878,1.878,1.878,1.878,1.878,1.878,1.8834,1.8842,1.8835,1.884,1.8835,1.8837,1.8835,1.8832,1.8828,1.8828,1.8827,1.882,1.8813,1.8809,1.8806,1.8803,1.8802,1.8809,1.8804,1.8779,1.8775,1.8771,1.8768,1.881,1.881,1.883,1.883,1.8831]}]]